Time,TemperatureF,DewpointF,PressureIn,WindDirection,WindDirectionDegrees,WindSpeedMPH,WindSpeedGustMPH,Humidity,HourlyPrecipIn,Conditions,Clouds,dailyrainin,SolarRadiationWatts/m^2,SoftwareType,DateUTC
2013-04-15 00:02:00,49.2,43.9,29.87,West,280,1.0,10.0,82,0.00,,,0.00,0,Wunderground v.1.15,2013-04-15 07:02:00,
2013-04-15 00:42:00,48.6,44.0,29.88,NW,319,1.0,10.0,84,0.00,,,0.00,0,Wunderground v.1.15,2013-04-15 07:42:00,
2013-04-15 00:43:00,48.6,44.0,29.88,North,350,1.0,10.0,84,0.00,,,0.00,0,Wunderground v.1.15,2013-04-15 07:43:00,
2013-04-15 00:47:00,48.6,44.0,29.89,NW,319,2.0,10.0,84,0.00,,,0.00,0,Wunderground v.1.15,2013-04-15 07:47:00,
2013-04-15 00:48:00,48.6,44.0,29.89,NW,317,2.0,10.0,84,0.00,,,0.00,0,Wunderground v.1.15,2013-04-15 07:48:00,
2013-04-15 00:49:00,48.6,44.0,29.89,NW,319,2.0,10.0,84,0.00,,,0.00,0,Wunderground v.1.15,2013-04-15 07:49:00,
2013-04-15 00:52:00,48.6,44.0,29.88,NNW,338,3.0,10.0,84,0.00,,,0.00,0,Wunderground v.1.15,2013-04-15 07:52:00,
2013-04-15 00:54:00,48.5,43.9,29.89,NNW,343,2.0,10.0,84,0.00,,,0.00,0,Wunderground v.1.15,2013-04-15 07:54:00,
2013-04-15 00:59:00,48.5,43.9,29.89,NW,322,3.0,10.0,84,0.00,,,0.00,0,Wunderground v.1.15,2013-04-15 07:59:00,
2013-04-15 01:04:00,48.4,43.5,29.88,NNW,335,3.0,10.0,83,0.00,,,0.00,0,Wunderground v.1.15,2013-04-15 08:04:00,
2013-04-15 01:10:00,48.3,43.4,29.88,NW,317,2.0,10.0,83,0.00,,,0.00,0,Wunderground v.1.15,2013-04-15 08:10:00,
2013-04-15 01:15:00,48.3,43.4,29.88,NW,317,3.0,10.0,83,0.00,,,0.00,0,Wunderground v.1.15,2013-04-15 08:15:00,
2013-04-15 01:21:00,48.2,43.6,29.88,NW,319,3.0,10.0,84,0.00,,,0.00,0,Wunderground v.1.15,2013-04-15 08:21:00,
2013-04-15 01:26:00,48.1,43.5,29.89,NNW,329,2.0,10.0,84,0.00,,,0.00,0,Wunderground v.1.15,2013-04-15 08:26:00,
2013-04-15 01:31:00,48.0,43.4,29.88,NNW,338,2.0,10.0,84,0.00,,,0.00,0,Wunderground v.1.15,2013-04-15 08:31:00,
2013-04-15 01:35:00,47.9,43.3,29.88,NW,319,2.0,10.0,84,0.00,,,0.00,0,Wunderground v.1.15,2013-04-15 08:35:00,
2013-04-15 01:40:00,47.8,43.2,29.88,WNW,291,3.0,10.0,84,0.00,,,0.00,0,Wunderground v.1.15,2013-04-15 08:40:00,
2013-04-15 01:41:00,47.8,43.2,29.88,WNW,292,3.0,10.0,84,0.00,,,0.00,0,Wunderground v.1.15,2013-04-15 08:41:00,
2013-04-15 01:44:00,47.7,43.1,29.88,WNW,290,2.0,10.0,84,0.00,,,0.00,0,Wunderground v.1.15,2013-04-15 08:44:00,
2013-04-15 01:47:00,47.6,43.0,29.88,NW,315,2.0,10.0,84,0.00,,,0.00,0,Wunderground v.1.15,2013-04-15 08:47:00,
2013-04-15 01:53:00,47.5,42.9,29.88,WNW,284,3.0,10.0,84,0.00,,,0.00,0,Wunderground v.1.15,2013-04-15 08:53:00,
2013-04-15 01:58:00,47.4,43.1,29.87,West,279,3.0,10.0,85,0.00,,,0.00,0,Wunderground v.1.15,2013-04-15 08:58:00,
2013-04-15 02:04:00,47.3,43.0,29.87,WNW,292,3.0,10.0,85,0.00,,,0.00,0,Wunderground v.1.15,2013-04-15 09:04:00,
2013-04-15 02:10:00,47.1,42.8,29.88,WNW,296,2.0,10.0,85,0.00,,,0.00,0,Wunderground v.1.15,2013-04-15 09:10:00,
2013-04-15 02:16:00,47.0,42.7,29.87,West,273,3.0,10.0,85,0.00,,,0.00,0,Wunderground v.1.15,2013-04-15 09:16:00,
2013-04-15 02:21:00,46.9,42.6,29.87,West,259,2.0,10.0,85,0.00,,,0.00,0,Wunderground v.1.15,2013-04-15 09:21:00,
2013-04-15 02:27:00,46.7,42.4,29.87,NNW,328,1.0,10.0,85,0.00,,,0.00,0,Wunderground v.1.15,2013-04-15 09:27:00,
2013-04-15 02:32:00,46.5,42.5,29.88,SW,232,1.0,10.0,86,0.00,,,0.00,0,Wunderground v.1.15,2013-04-15 09:32:00,
2013-04-15 02:37:00,46.4,42.4,29.88,WSW,254,1.0,10.0,86,0.00,,,0.00,0,Wunderground v.1.15,2013-04-15 09:37:00,
2013-04-15 02:42:00,46.3,42.3,29.88,WSW,255,1.0,10.0,86,0.00,,,0.00,0,Wunderground v.1.15,2013-04-15 09:42:00,
2013-04-15 02:48:00,46.2,42.2,29.88,WSW,255,0.0,10.0,86,0.00,,,0.00,0,Wunderground v.1.15,2013-04-15 09:48:00,
2013-04-15 02:53:00,46.1,42.1,29.88,WSW,254,1.0,10.0,86,0.00,,,0.00,0,Wunderground v.1.15,2013-04-15 09:53:00,
2013-04-15 02:59:00,46.1,42.4,29.88,WSW,254,0.0,10.0,87,0.00,,,0.00,0,Wunderground v.1.15,2013-04-15 09:59:00,
2013-04-15 03:05:00,46.1,42.4,29.87,WSW,254,0.0,10.0,87,0.00,,,0.00,0,Wunderground v.1.15,2013-04-15 10:05:00,
2013-04-15 03:10:00,46.1,42.4,29.87,West,272,0.0,10.0,87,0.00,,,0.00,0,Wunderground v.1.15,2013-04-15 10:10:00,
2013-04-15 03:15:00,46.1,42.4,29.88,West,273,0.0,10.0,87,0.00,,,0.00,0,Wunderground v.1.15,2013-04-15 10:15:00,
2013-04-15 03:20:00,46.1,42.4,29.88,West,273,1.0,10.0,87,0.00,,,0.00,0,Wunderground v.1.15,2013-04-15 10:20:00,
2013-04-15 03:25:00,46.1,42.4,29.88,WNW,298,1.0,10.0,87,0.00,,,0.00,0,Wunderground v.1.15,2013-04-15 10:25:00,
2013-04-15 03:31:00,46.0,42.3,29.88,WNW,298,2.0,10.0,87,0.00,,,0.00,0,Wunderground v.1.15,2013-04-15 10:31:00,
2013-04-15 03:36:00,46.0,42.0,29.87,WNW,286,2.0,10.0,86,0.00,,,0.00,0,Wunderground v.1.15,2013-04-15 10:36:00,
2013-04-15 03:42:00,45.9,41.9,29.87,WNW,295,2.0,10.0,86,0.00,,,0.00,0,Wunderground v.1.15,2013-04-15 10:42:00,
2013-04-15 03:47:00,46.0,42.0,29.87,WNW,300,2.0,10.0,86,0.00,,,0.00,0,Wunderground v.1.15,2013-04-15 10:47:00,
2013-04-15 03:53:00,45.9,41.6,29.87,WNW,294,2.0,10.0,85,0.00,,,0.00,0,Wunderground v.1.15,2013-04-15 10:53:00,
2013-04-15 03:58:00,45.9,41.6,29.87,WNW,294,2.0,10.0,85,0.00,,,0.00,0,Wunderground v.1.15,2013-04-15 10:58:00,
2013-04-15 04:04:00,45.8,41.5,29.88,WNW,293,1.0,10.0,85,0.00,,,0.00,0,Wunderground v.1.15,2013-04-15 11:04:00,
2013-04-15 04:10:00,45.8,41.5,29.88,WNW,288,1.0,10.0,85,0.00,,,0.00,0,Wunderground v.1.15,2013-04-15 11:10:00,
2013-04-15 04:16:00,45.7,41.4,29.88,WNW,288,1.0,10.0,85,0.00,,,0.00,0,Wunderground v.1.15,2013-04-15 11:16:00,
2013-04-15 04:21:00,45.5,41.3,29.88,WNW,288,1.0,10.0,85,0.00,,,0.00,0,Wunderground v.1.15,2013-04-15 11:21:00,
2013-04-15 04:27:00,45.4,41.2,29.88,NW,305,1.0,10.0,85,0.00,,,0.00,0,Wunderground v.1.15,2013-04-15 11:27:00,
2013-04-15 04:32:00,45.2,41.0,29.88,NW,304,1.0,10.0,85,0.00,,,0.00,0,Wunderground v.1.15,2013-04-15 11:32:00,
2013-04-15 04:38:00,45.1,40.9,29.88,WNW,300,1.0,10.0,85,0.00,,,0.00,0,Wunderground v.1.15,2013-04-15 11:38:00,
2013-04-15 04:44:00,45.0,40.8,29.88,WNW,294,1.0,10.0,85,0.00,,,0.00,0,Wunderground v.1.15,2013-04-15 11:44:00,
2013-04-15 04:49:00,44.8,40.6,29.89,WNW,298,1.0,10.0,85,0.00,,,0.00,0,Wunderground v.1.15,2013-04-15 11:49:00,
2013-04-15 04:55:00,44.7,40.5,29.88,NW,304,2.0,10.0,85,0.00,,,0.00,0,Wunderground v.1.15,2013-04-15 11:55:00,
2013-04-15 05:01:00,44.5,40.3,29.88,WNW,292,2.0,10.0,85,0.00,,,0.00,0,Wunderground v.1.15,2013-04-15 12:01:00,
2013-04-15 05:06:00,44.3,40.1,29.88,WNW,303,2.0,10.0,85,0.00,,,0.00,0,Wunderground v.1.15,2013-04-15 12:06:00,
2013-04-15 05:12:00,44.1,39.9,29.89,WNW,290,1.0,10.0,85,0.00,,,0.00,0,Wunderground v.1.15,2013-04-15 12:12:00,
2013-04-15 05:18:00,44.0,39.8,29.89,WNW,287,2.0,10.0,85,0.00,,,0.00,0,Wunderground v.1.15,2013-04-15 12:18:00,
2013-04-15 05:23:00,43.8,39.9,29.89,WNW,286,1.0,10.0,86,0.00,,,0.00,0,Wunderground v.1.15,2013-04-15 12:23:00,
2013-04-15 05:29:00,43.7,39.8,29.89,WNW,290,1.0,10.0,86,0.00,,,0.00,0,Wunderground v.1.15,2013-04-15 12:29:00,
2013-04-15 05:35:00,43.5,39.3,29.89,WNW,289,1.0,10.0,85,0.00,,,0.00,0,Wunderground v.1.15,2013-04-15 12:35:00,
2013-04-15 05:41:00,43.3,39.4,29.89,WNW,287,1.0,10.0,86,0.00,,,0.00,0,Wunderground v.1.15,2013-04-15 12:41:00,
2013-04-15 05:47:00,43.2,39.3,29.89,WNW,287,0.0,10.0,86,0.00,,,0.00,0,Wunderground v.1.15,2013-04-15 12:47:00,
2013-04-15 05:53:00,43.0,39.1,29.88,WNW,287,0.0,10.0,86,0.00,,,0.00,0,Wunderground v.1.15,2013-04-15 12:53:00,
2013-04-15 05:59:00,42.9,39.0,29.89,WNW,287,0.0,10.0,86,0.00,,,0.00,0,Wunderground v.1.15,2013-04-15 12:59:00,
2013-04-15 06:04:00,42.8,38.9,29.89,WNW,287,0.0,10.0,86,0.00,,,0.00,0,Wunderground v.1.15,2013-04-15 13:04:00,
2013-04-15 06:10:00,42.6,38.7,29.89,WNW,287,0.0,10.0,86,0.00,,,0.00,0,Wunderground v.1.15,2013-04-15 13:10:00,
2013-04-15 06:15:00,42.4,38.5,29.89,WNW,287,0.0,10.0,86,0.00,,,0.00,0,Wunderground v.1.15,2013-04-15 13:15:00,
2013-04-15 06:20:00,42.3,38.4,29.89,WNW,287,0.0,10.0,86,0.00,,,0.00,0,Wunderground v.1.15,2013-04-15 13:20:00,
2013-04-15 06:26:00,42.2,38.3,29.89,WNW,287,0.0,10.0,86,0.00,,,0.00,0,Wunderground v.1.15,2013-04-15 13:26:00,
2013-04-15 06:32:00,42.0,38.1,29.90,WNW,287,0.0,10.0,86,0.00,,,0.00,0,Wunderground v.1.15,2013-04-15 13:32:00,
2013-04-15 06:37:00,41.9,38.0,29.90,WNW,287,0.0,10.0,86,0.00,,,0.00,5,Wunderground v.1.15,2013-04-15 13:37:00,
2013-04-15 06:42:00,41.7,37.8,29.90,WNW,287,0.0,10.0,86,0.00,,,0.00,9,Wunderground v.1.15,2013-04-15 13:42:00,
2013-04-15 06:48:00,41.6,37.7,29.90,WNW,287,0.0,10.0,86,0.00,,,0.00,12,Wunderground v.1.15,2013-04-15 13:48:00,
2013-04-15 06:53:00,41.4,37.8,29.91,WNW,287,0.0,10.0,87,0.00,,,0.00,16,Wunderground v.1.15,2013-04-15 13:53:00,
2013-04-15 06:59:00,41.2,37.6,29.91,WNW,287,0.0,10.0,87,0.00,,,0.00,19,Wunderground v.1.15,2013-04-15 13:59:00,
2013-04-15 07:04:00,41.1,37.5,29.91,WNW,287,0.0,10.0,87,0.00,,,0.00,21,Wunderground v.1.15,2013-04-15 14:04:00,
2013-04-15 07:10:00,41.0,37.4,29.91,WNW,287,0.0,10.0,87,0.00,,,0.00,28,Wunderground v.1.15,2013-04-15 14:10:00,
2013-04-15 07:16:00,41.0,37.7,29.91,WNW,287,0.0,10.0,88,0.00,,,0.00,53,Wunderground v.1.15,2013-04-15 14:16:00,
2013-04-15 07:21:00,41.1,37.8,29.92,WNW,287,0.0,10.0,88,0.00,,,0.00,40,Wunderground v.1.15,2013-04-15 14:21:00,
2013-04-15 07:26:00,41.3,38.0,29.92,WNW,287,0.0,10.0,88,0.00,,,0.00,37,Wunderground v.1.15,2013-04-15 14:26:00,
2013-04-15 07:32:00,41.4,38.1,29.92,WNW,287,0.0,10.0,88,0.00,,,0.00,62,Wunderground v.1.15,2013-04-15 14:32:00,
2013-04-15 07:37:00,41.6,38.6,29.92,WNW,287,0.0,10.0,89,0.00,,,0.00,72,Wunderground v.1.15,2013-04-15 14:37:00,
2013-04-15 07:43:00,41.8,38.5,29.92,WNW,287,1.0,10.0,88,0.00,,,0.00,86,Wunderground v.1.15,2013-04-15 14:43:00,
2013-04-15 07:49:00,42.2,38.9,29.92,WNW,287,1.0,10.0,88,0.00,,,0.00,88,Wunderground v.1.15,2013-04-15 14:49:00,
2013-04-15 07:54:00,42.4,39.1,29.92,WNW,287,0.0,10.0,88,0.00,,,0.00,130,Wunderground v.1.15,2013-04-15 14:54:00,
2013-04-15 07:59:00,42.7,39.1,29.92,WNW,288,1.0,10.0,87,0.00,,,0.00,167,Wunderground v.1.15,2013-04-15 14:59:00,
2013-04-15 08:04:00,43.1,39.2,29.92,WNW,286,1.0,10.0,86,0.00,,,0.00,220,Wunderground v.1.15,2013-04-15 15:04:00,
2013-04-15 08:10:00,43.4,39.2,29.92,WNW,294,2.0,10.0,85,0.00,,,0.00,171,Wunderground v.1.15,2013-04-15 15:10:00,
2013-04-15 08:15:00,43.8,39.0,29.93,WNW,299,2.0,10.0,83,0.00,,,0.00,290,Wunderground v.1.15,2013-04-15 15:15:00,
2013-04-15 08:20:00,44.3,38.8,29.93,NNW,342,4.0,10.0,81,0.00,,,0.00,302,Wunderground v.1.15,2013-04-15 15:20:00,
2013-04-15 08:25:00,44.6,38.5,29.93,NW,304,5.0,10.0,79,0.00,,,0.00,320,Wunderground v.1.15,2013-04-15 15:25:00,
2013-04-15 08:31:00,45.2,38.7,29.92,NW,317,4.0,10.0,78,0.00,,,0.00,343,Wunderground v.1.15,2013-04-15 15:31:00,
2013-04-15 08:36:00,45.8,38.7,29.93,NW,319,3.0,10.0,76,0.00,,,0.00,355,Wunderground v.1.15,2013-04-15 15:36:00,
2013-04-15 08:42:00,46.2,38.4,29.93,West,265,4.0,10.0,74,0.00,,,0.00,374,Wunderground v.1.15,2013-04-15 15:42:00,
2013-04-15 08:47:00,46.4,38.2,29.93,NW,312,5.0,10.0,73,0.00,,,0.00,390,Wunderground v.1.15,2013-04-15 15:47:00,
2013-04-15 08:52:00,46.7,38.1,29.93,WNW,295,5.0,10.0,72,0.00,,,0.00,410,Wunderground v.1.15,2013-04-15 15:52:00,
2013-04-15 08:58:00,47.0,38.1,29.92,WNW,298,5.0,10.0,71,0.00,,,0.00,427,Wunderground v.1.15,2013-04-15 15:58:00,
2013-04-15 09:04:00,47.1,37.8,29.92,WNW,284,7.0,10.0,70,0.00,,,0.00,448,Wunderground v.1.15,2013-04-15 16:04:00,
2013-04-15 09:10:00,47.4,38.1,29.92,WNW,298,6.0,12.0,70,0.00,,,0.00,469,Wunderground v.1.15,2013-04-15 16:10:00,
2013-04-15 09:15:00,47.7,38.0,29.92,NW,306,5.0,12.0,69,0.00,,,0.00,485,Wunderground v.1.15,2013-04-15 16:15:00,
2013-04-15 09:21:00,48.0,37.9,29.93,NNW,343,6.0,10.0,68,0.00,,,0.00,508,Wunderground v.1.15,2013-04-15 16:21:00,
2013-04-15 09:26:00,48.3,37.8,29.92,WNW,294,6.0,11.0,67,0.00,,,0.00,527,Wunderground v.1.15,2013-04-15 16:26:00,
2013-04-15 09:32:00,48.6,37.7,29.93,NW,309,6.0,10.0,66,0.00,,,0.00,557,Wunderground v.1.15,2013-04-15 16:32:00,
2013-04-15 09:37:00,48.8,37.2,29.93,West,275,7.0,10.0,64,0.00,,,0.00,594,Wunderground v.1.15,2013-04-15 16:37:00,
2013-04-15 09:42:00,49.1,37.8,29.92,WNW,298,7.0,13.0,65,0.00,,,0.00,587,Wunderground v.1.15,2013-04-15 16:42:00,
2013-04-15 09:48:00,49.5,37.4,29.92,NNW,328,6.0,13.0,63,0.00,,,0.00,591,Wunderground v.1.15,2013-04-15 16:48:00,
2013-04-15 09:53:00,49.8,37.7,29.93,West,273,7.0,10.0,63,0.00,,,0.00,606,Wunderground v.1.15,2013-04-15 16:53:00,
2013-04-15 09:59:00,50.1,37.6,29.93,NNW,336,7.0,10.0,62,0.00,,,0.00,619,Wunderground v.1.15,2013-04-15 16:59:00,
2013-04-15 10:05:00,50.7,37.7,29.93,NNW,336,6.0,10.0,61,0.00,,,0.00,668,Wunderground v.1.15,2013-04-15 17:05:00,
2013-04-15 10:11:00,51.2,37.4,29.93,NW,314,6.0,11.0,59,0.00,,,0.00,684,Wunderground v.1.15,2013-04-15 17:11:00,
2013-04-15 10:16:00,51.5,37.2,29.93,WNW,282,6.0,11.0,58,0.00,,,0.00,707,Wunderground v.1.15,2013-04-15 17:16:00,
2013-04-15 10:21:00,51.8,37.0,29.92,WNW,292,5.0,10.0,57,0.00,,,0.00,580,Wunderground v.1.15,2013-04-15 17:21:00,
2013-04-15 10:23:00,52.0,37.7,29.92,WNW,301,5.0,10.0,58,0.00,,,0.00,506,Wunderground v.1.15,2013-04-15 17:23:00,
2013-04-15 10:24:00,52.2,37.9,29.92,WNW,302,5.0,10.0,58,0.00,,,0.00,506,Wunderground v.1.15,2013-04-15 17:24:00,
2013-04-15 10:25:00,52.3,37.5,29.92,NW,321,4.0,10.0,57,0.00,,,0.00,522,Wunderground v.1.15,2013-04-15 17:25:00,
2013-04-15 10:30:00,52.7,36.5,29.92,NW,318,5.0,5.0,54,0.00,,,0.00,522,Wunderground v.1.15,2013-04-15 17:30:00,
2013-04-15 10:35:00,53.0,36.8,29.92,NW,309,6.0,12.0,54,0.00,,,0.00,752,Wunderground v.1.15,2013-04-15 17:35:00,
2013-04-15 10:41:00,53.2,36.5,29.92,WSW,245,5.0,11.0,53,0.00,,,0.00,345,Wunderground v.1.15,2013-04-15 17:41:00,
2013-04-15 10:46:00,53.7,36.5,29.92,WSW,239,6.0,11.0,52,0.00,,,0.00,779,Wunderground v.1.15,2013-04-15 17:46:00,
2013-04-15 10:52:00,54.4,35.6,29.92,WNW,292,7.0,10.0,49,0.00,,,0.00,780,Wunderground v.1.15,2013-04-15 17:52:00,
2013-04-15 10:58:00,54.8,36.0,29.92,West,274,7.0,10.0,49,0.00,,,0.00,784,Wunderground v.1.15,2013-04-15 17:58:00,
2013-04-15 11:04:00,55.6,35.7,29.92,NW,313,6.0,10.0,47,0.00,,,0.00,793,Wunderground v.1.15,2013-04-15 18:04:00,
2013-04-15 11:09:00,55.9,35.4,29.92,NNW,335,6.0,10.0,46,0.00,,,0.00,803,Wunderground v.1.15,2013-04-15 18:09:00,
2013-04-15 11:15:00,56.1,35.6,29.92,NW,319,6.0,10.0,46,0.00,,,0.00,819,Wunderground v.1.15,2013-04-15 18:15:00,
2013-04-15 11:20:00,56.8,35.1,29.92,West,281,6.0,10.0,44,0.00,,,0.00,828,Wunderground v.1.15,2013-04-15 18:20:00,
2013-04-15 11:26:00,57.0,35.3,29.92,West,269,6.0,11.0,44,0.00,,,0.00,838,Wunderground v.1.15,2013-04-15 18:26:00,
2013-04-15 11:29:00,57.2,34.9,29.92,NNW,348,6.0,11.0,43,0.00,,,0.00,846,Wunderground v.1.15,2013-04-15 18:29:00,
2013-04-15 11:31:00,57.5,35.7,29.92,NNW,328,6.0,10.0,44,0.00,,,0.00,847,Wunderground v.1.15,2013-04-15 18:31:00,
2013-04-15 11:34:00,58.1,35.1,29.92,WNW,297,5.0,10.0,42,0.00,,,0.00,853,Wunderground v.1.15,2013-04-15 18:34:00,
2013-04-15 11:35:00,58.3,35.3,29.92,WNW,302,5.0,13.0,42,0.00,,,0.00,853,Wunderground v.1.15,2013-04-15 18:35:00,
2013-04-15 11:38:00,58.6,34.3,29.92,West,269,5.0,13.0,40,0.00,,,0.00,860,Wunderground v.1.15,2013-04-15 18:38:00,
2013-04-15 11:43:00,58.7,33.8,29.92,NW,317,6.0,10.0,39,0.00,,,0.00,868,Wunderground v.1.15,2013-04-15 18:43:00,
2013-04-15 11:49:00,58.5,33.0,29.92,NNW,332,7.0,10.0,38,0.00,,,0.00,874,Wunderground v.1.15,2013-04-15 18:49:00,
2013-04-15 11:54:00,58.6,33.0,29.91,WSW,241,7.0,14.0,38,0.00,,,0.00,877,Wunderground v.1.15,2013-04-15 18:54:00,
2013-04-15 12:00:00,59.0,35.3,29.91,North,350,7.0,7.0,41,0.00,,,0.00,886,Wunderground v.1.15,2013-04-15 19:00:00,
2013-04-15 12:05:00,59.1,32.8,29.91,WNW,300,7.0,10.0,37,0.00,,,0.00,896,Wunderground v.1.15,2013-04-15 19:05:00,
2013-04-15 12:10:00,59.6,33.3,29.91,WNW,302,7.0,10.0,37,0.00,,,0.00,902,Wunderground v.1.15,2013-04-15 19:10:00,
2013-04-15 12:16:00,59.9,34.2,29.91,NNW,331,7.0,10.0,38,0.00,,,0.00,909,Wunderground v.1.15,2013-04-15 19:16:00,
2013-04-15 12:21:00,60.2,33.8,29.90,NW,306,7.0,10.0,37,0.00,,,0.00,909,Wunderground v.1.15,2013-04-15 19:21:00,
2013-04-15 12:27:00,60.0,34.3,29.90,NW,309,7.0,10.0,38,0.00,,,0.00,916,Wunderground v.1.15,2013-04-15 19:27:00,
2013-04-15 12:33:00,60.0,35.0,29.90,West,259,8.0,10.0,39,0.00,,,0.00,919,Wunderground v.1.15,2013-04-15 19:33:00,
2013-04-15 12:39:00,60.3,33.2,29.90,WSW,249,7.0,14.0,36,0.00,,,0.00,926,Wunderground v.1.15,2013-04-15 19:39:00,
2013-04-15 12:44:00,60.6,33.5,29.89,NW,312,7.0,12.0,36,0.00,,,0.00,926,Wunderground v.1.15,2013-04-15 19:44:00,
2013-04-15 12:49:00,60.7,33.6,29.89,NNW,327,8.0,13.0,36,0.00,,,0.00,933,Wunderground v.1.15,2013-04-15 19:49:00,
2013-04-15 12:56:00,60.8,33.0,29.89,NNW,342,9.0,13.0,35,0.00,,,0.00,935,Wunderground v.1.15,2013-04-15 19:56:00,
2013-04-15 12:57:00,60.7,32.9,29.89,WNW,302,9.0,13.0,35,0.00,,,0.00,933,Wunderground v.1.15,2013-04-15 19:57:00,
2013-04-15 13:00:00,60.7,32.9,29.89,NNW,338,9.0,9.0,35,0.00,,,0.00,933,Wunderground v.1.15,2013-04-15 20:00:00,
2013-04-15 13:01:00,60.7,33.6,29.89,WNW,292,10.0,10.0,36,0.00,,,0.00,935,Wunderground v.1.15,2013-04-15 20:01:00,
2013-04-15 13:03:00,60.7,34.3,29.89,WSW,253,9.0,10.0,37,0.00,,,0.00,935,Wunderground v.1.15,2013-04-15 20:03:00,
2013-04-15 13:05:00,60.8,34.3,29.89,NW,315,9.0,11.0,37,0.00,,,0.00,933,Wunderground v.1.15,2013-04-15 20:05:00,
2013-04-15 13:06:00,60.8,34.3,29.89,NNW,346,9.0,15.0,37,0.00,,,0.00,935,Wunderground v.1.15,2013-04-15 20:06:00,
2013-04-15 13:07:00,60.8,34.3,29.89,WNW,292,9.0,15.0,37,0.00,,,0.00,935,Wunderground v.1.15,2013-04-15 20:07:00,
2013-04-15 13:09:00,60.7,33.6,29.89,West,277,10.0,15.0,36,0.00,,,0.00,935,Wunderground v.1.15,2013-04-15 20:09:00,
2013-04-15 13:14:00,60.4,33.3,29.89,WNW,286,10.0,16.0,36,0.00,,,0.00,935,Wunderground v.1.15,2013-04-15 20:14:00,
2013-04-15 13:20:00,60.8,33.7,29.90,NW,312,10.0,10.0,36,0.00,,,0.00,933,Wunderground v.1.15,2013-04-15 20:20:00,
2013-04-15 13:25:00,60.9,34.4,29.89,West,281,9.0,12.0,37,0.00,,,0.00,935,Wunderground v.1.15,2013-04-15 20:25:00,
2013-04-15 13:30:00,60.6,33.5,29.88,WNW,300,10.0,10.0,36,0.00,,,0.00,930,Wunderground v.1.15,2013-04-15 20:30:00,
2013-04-15 13:35:00,60.7,34.3,29.88,WNW,301,10.0,19.0,37,0.00,,,0.00,933,Wunderground v.1.15,2013-04-15 20:35:00,
2013-04-15 13:40:00,60.7,34.3,29.88,WNW,303,10.0,12.0,37,0.00,,,0.00,932,Wunderground v.1.15,2013-04-15 20:40:00,
2013-04-15 13:45:00,60.4,33.3,29.88,NNW,341,11.0,16.0,36,0.00,,,0.00,925,Wunderground v.1.15,2013-04-15 20:45:00,
2013-04-15 13:51:00,61.0,34.5,29.88,NNW,333,10.0,12.0,37,0.00,,,0.00,919,Wunderground v.1.15,2013-04-15 20:51:00,
2013-04-15 13:57:00,60.9,34.4,29.88,WNW,290,10.0,18.0,37,0.00,,,0.00,919,Wunderground v.1.15,2013-04-15 20:57:00,
2013-04-15 14:02:00,60.7,33.6,29.88,WNW,289,11.0,20.0,36,0.00,,,0.00,914,Wunderground v.1.15,2013-04-15 21:02:00,
2013-04-15 14:08:00,60.6,34.2,29.88,NW,311,11.0,20.0,37,0.00,,,0.00,907,Wunderground v.1.15,2013-04-15 21:08:00,
2013-04-15 14:13:00,60.9,34.4,29.88,NW,304,9.0,11.0,37,0.00,,,0.00,902,Wunderground v.1.15,2013-04-15 21:13:00,
2013-04-15 14:18:00,61.4,32.8,29.88,WNW,300,9.0,13.0,34,0.00,,,0.00,900,Wunderground v.1.15,2013-04-15 21:18:00,
2013-04-15 14:24:00,60.7,32.9,29.88,NW,313,11.0,14.0,35,0.00,,,0.00,905,Wunderground v.1.15,2013-04-15 21:24:00,
2013-04-15 14:30:00,60.4,33.3,29.88,West,277,10.0,16.0,36,0.00,,,0.00,940,Wunderground v.1.15,2013-04-15 21:30:00,
2013-04-15 14:35:00,60.7,33.6,29.88,WNW,300,9.0,16.0,36,0.00,,,0.00,962,Wunderground v.1.15,2013-04-15 21:35:00,
2013-04-15 14:40:00,61.1,33.9,29.88,NNW,327,8.0,22.0,36,0.00,,,0.00,956,Wunderground v.1.15,2013-04-15 21:40:00,
2013-04-15 14:46:00,61.1,34.6,29.88,West,267,8.0,22.0,37,0.00,,,0.00,986,Wunderground v.1.15,2013-04-15 21:46:00,
2013-04-15 14:51:00,60.9,34.4,29.88,NNE,21,10.0,16.0,37,0.00,,,0.00,1065,Wunderground v.1.15,2013-04-15 21:51:00,
2013-04-15 14:56:00,59.9,33.5,29.88,WNW,303,11.0,18.0,37,0.00,,,0.00,237,Wunderground v.1.15,2013-04-15 21:56:00,
2013-04-15 15:01:00,59.5,34.5,29.88,NW,307,12.0,12.0,39,0.00,,,0.00,960,Wunderground v.1.15,2013-04-15 22:01:00,
2013-04-15 15:06:00,59.6,35.2,29.88,NW,313,11.0,21.0,40,0.00,,,0.00,849,Wunderground v.1.15,2013-04-15 22:06:00,
2013-04-15 15:11:00,59.7,34.7,29.88,WSW,257,11.0,18.0,39,0.00,,,0.00,817,Wunderground v.1.15,2013-04-15 22:11:00,
2013-04-15 15:17:00,59.6,33.9,29.88,WNW,300,11.0,18.0,38,0.00,,,0.00,803,Wunderground v.1.15,2013-04-15 22:17:00,
2013-04-15 15:22:00,59.9,32.9,29.87,West,281,11.0,14.0,36,0.00,,,0.00,798,Wunderground v.1.15,2013-04-15 22:22:00,
2013-04-15 15:27:00,59.8,32.8,29.87,NW,306,11.0,14.0,36,0.00,,,0.00,788,Wunderground v.1.15,2013-04-15 22:27:00,
2013-04-15 15:33:00,59.8,33.5,29.87,WNW,303,11.0,17.0,37,0.00,,,0.00,775,Wunderground v.1.15,2013-04-15 22:33:00,
2013-04-15 15:39:00,59.2,33.6,29.87,North,360,12.0,18.0,38,0.00,,,0.00,770,Wunderground v.1.15,2013-04-15 22:39:00,
2013-04-15 15:44:00,58.9,34.0,29.87,West,272,12.0,18.0,39,0.00,,,0.00,747,Wunderground v.1.15,2013-04-15 22:44:00,
2013-04-15 15:49:00,58.7,32.5,29.87,North,355,13.0,25.0,37,0.00,,,0.00,740,Wunderground v.1.15,2013-04-15 22:49:00,
2013-04-15 15:58:00,59.1,32.8,29.86,NW,312,10.0,25.0,37,0.00,,,0.00,707,Wunderground v.1.15,2013-04-15 22:58:00,
2013-04-15 16:04:00,59.1,33.5,29.86,NW,309,11.0,25.0,38,0.00,,,0.00,693,Wunderground v.1.15,2013-04-15 23:04:00,
2013-04-15 16:10:00,59.5,33.9,29.86,NW,312,8.0,8.0,38,0.00,,,0.00,675,Wunderground v.1.15,2013-04-15 23:10:00,
2013-04-15 16:16:00,59.8,34.1,29.86,West,277,8.0,25.0,38,0.00,,,0.00,657,Wunderground v.1.15,2013-04-15 23:16:00,
2013-04-15 16:21:00,59.6,33.3,29.86,WNW,302,9.0,25.0,37,0.00,,,0.00,645,Wunderground v.1.15,2013-04-15 23:21:00,
2013-04-15 16:26:00,59.1,33.5,29.86,NNW,338,11.0,25.0,38,0.00,,,0.00,633,Wunderground v.1.15,2013-04-15 23:26:00,
2013-04-15 16:31:00,58.7,33.8,29.86,WNW,298,12.0,25.0,39,0.00,,,0.00,617,Wunderground v.1.15,2013-04-15 23:31:00,
2013-04-15 16:37:00,58.7,33.8,29.86,NNW,346,11.0,25.0,39,0.00,,,0.00,598,Wunderground v.1.15,2013-04-15 23:37:00,
2013-04-15 16:42:00,58.6,34.3,29.86,WNW,302,10.0,25.0,40,0.00,,,0.00,580,Wunderground v.1.15,2013-04-15 23:42:00,
2013-04-15 16:48:00,58.9,34.6,29.86,North,355,9.0,25.0,40,0.00,,,0.00,564,Wunderground v.1.15,2013-04-15 23:48:00,
2013-04-15 16:54:00,58.5,34.2,29.86,North,355,10.0,25.0,40,0.00,,,0.00,545,Wunderground v.1.15,2013-04-15 23:54:00,
2013-04-15 17:00:00,58.6,35.0,29.86,NW,304,9.0,25.0,41,0.00,,,0.00,526,Wunderground v.1.15,2013-04-16 00:00:00,
2013-04-15 17:05:00,58.7,34.4,29.85,WNW,301,7.0,25.0,40,0.00,,,0.00,512,Wunderground v.1.15,2013-04-16 00:05:00,
2013-04-15 17:11:00,58.5,33.6,29.85,West,263,9.0,25.0,39,0.00,,,0.00,494,Wunderground v.1.15,2013-04-16 00:11:00,
2013-04-15 17:16:00,58.0,33.8,29.86,WNW,298,10.0,25.0,40,0.00,,,0.00,475,Wunderground v.1.15,2013-04-16 00:16:00,
2013-04-15 17:21:00,57.7,33.5,29.86,West,262,11.0,25.0,40,0.00,,,0.00,459,Wunderground v.1.15,2013-04-16 00:21:00,
2013-04-15 17:26:00,57.7,33.5,29.86,West,277,10.0,25.0,40,0.00,,,0.00,443,Wunderground v.1.15,2013-04-16 00:26:00,
2013-04-15 17:31:00,57.7,33.5,29.87,WNW,289,9.0,25.0,40,0.00,,,0.00,424,Wunderground v.1.15,2013-04-16 00:31:00,
2013-04-15 17:36:00,57.5,33.3,29.86,West,267,10.0,25.0,40,0.00,,,0.00,406,Wunderground v.1.15,2013-04-16 00:36:00,
2013-04-15 17:42:00,57.3,33.8,29.85,NW,321,11.0,25.0,41,0.00,,,0.00,385,Wunderground v.1.15,2013-04-16 00:42:00,
2013-04-15 17:48:00,57.0,33.5,29.86,West,276,10.0,25.0,41,0.00,,,0.00,364,Wunderground v.1.15,2013-04-16 00:48:00,
2013-04-15 17:54:00,56.6,33.8,29.86,NW,306,11.0,25.0,42,0.00,,,0.00,345,Wunderground v.1.15,2013-04-16 00:54:00,
2013-04-15 18:00:00,56.3,33.5,29.86,West,277,9.0,25.0,42,0.00,,,0.00,320,Wunderground v.1.15,2013-04-16 01:00:00,
2013-04-15 18:06:00,56.0,33.2,29.86,West,275,9.0,25.0,42,0.00,,,0.00,299,Wunderground v.1.15,2013-04-16 01:06:00,
2013-04-15 18:12:00,55.8,33.6,29.87,WNW,292,9.0,25.0,43,0.00,,,0.00,278,Wunderground v.1.15,2013-04-16 01:12:00,
2013-04-15 18:18:00,55.6,33.4,29.87,West,281,9.0,25.0,43,0.00,,,0.00,253,Wunderground v.1.15,2013-04-16 01:18:00,
2013-04-15 18:23:00,55.3,33.2,29.87,NNW,341,9.0,25.0,43,0.00,,,0.00,234,Wunderground v.1.15,2013-04-16 01:23:00,
2013-04-15 18:29:00,55.2,33.1,29.87,NW,323,9.0,25.0,43,0.00,,,0.00,206,Wunderground v.1.15,2013-04-16 01:29:00,
2013-04-15 18:34:00,55.1,33.0,29.87,West,260,8.0,25.0,43,0.00,,,0.00,183,Wunderground v.1.15,2013-04-16 01:34:00,
2013-04-15 18:40:00,54.8,33.3,29.87,WNW,295,9.0,25.0,44,0.00,,,0.00,155,Wunderground v.1.15,2013-04-16 01:40:00,
2013-04-15 18:46:00,54.7,33.2,29.87,NW,326,8.0,25.0,44,0.00,,,0.00,137,Wunderground v.1.15,2013-04-16 01:46:00,
2013-04-15 18:51:00,54.4,33.5,29.88,WNW,302,8.0,25.0,45,0.00,,,0.00,114,Wunderground v.1.15,2013-04-16 01:51:00,
2013-04-15 18:57:00,54.1,33.8,29.88,West,275,8.0,25.0,46,0.00,,,0.00,91,Wunderground v.1.15,2013-04-16 01:57:00,
2013-04-15 19:02:00,54.0,33.7,29.88,WNW,303,7.0,25.0,46,0.00,,,0.00,77,Wunderground v.1.15,2013-04-16 02:02:00,
2013-04-15 19:08:00,53.7,33.9,29.88,NW,310,6.0,25.0,47,0.00,,,0.00,58,Wunderground v.1.15,2013-04-16 02:08:00,
2013-04-15 19:14:00,53.4,34.2,29.88,WNW,290,6.0,25.0,48,0.00,,,0.00,32,Wunderground v.1.15,2013-04-16 02:14:00,
2013-04-15 19:19:00,53.1,33.9,29.88,WSW,241,6.0,25.0,48,0.00,,,0.00,23,Wunderground v.1.15,2013-04-16 02:19:00,
2013-04-15 19:25:00,52.7,34.1,29.88,WSW,257,6.0,25.0,49,0.00,,,0.00,18,Wunderground v.1.15,2013-04-16 02:25:00,
2013-04-15 19:30:00,52.5,34.4,29.88,NW,304,6.0,6.0,50,0.00,,,0.00,14,Wunderground v.1.15,2013-04-16 02:30:00,
2013-04-15 19:35:00,52.2,34.6,29.88,West,275,5.0,25.0,51,0.00,,,0.00,12,Wunderground v.1.15,2013-04-16 02:35:00,
2013-04-15 19:41:00,51.9,34.3,29.88,WNW,299,6.0,25.0,51,0.00,,,0.00,9,Wunderground v.1.15,2013-04-16 02:41:00,
2013-04-15 19:47:00,51.6,34.5,29.89,NNW,332,7.0,25.0,52,0.00,,,0.00,5,Wunderground v.1.15,2013-04-16 02:47:00,
2013-04-15 19:53:00,51.4,34.8,29.89,WNW,298,5.0,25.0,53,0.00,,,0.00,0,Wunderground v.1.15,2013-04-16 02:53:00,
2013-04-15 19:59:00,51.2,34.6,29.89,NW,321,4.0,25.0,53,0.00,,,0.00,0,Wunderground v.1.15,2013-04-16 02:59:00,
2013-04-15 20:04:00,51.0,34.5,29.90,NNW,329,5.0,25.0,53,0.00,,,0.00,0,Wunderground v.1.15,2013-04-16 03:04:00,
2013-04-15 20:09:00,50.8,34.7,29.90,WNW,284,4.0,25.0,54,0.00,,,0.00,0,Wunderground v.1.15,2013-04-16 03:09:00,
2013-04-15 20:15:00,50.6,34.6,29.90,West,274,4.0,25.0,54,0.00,,,0.00,0,Wunderground v.1.15,2013-04-16 03:15:00,
2013-04-15 20:20:00,50.4,34.8,29.91,NW,311,5.0,25.0,55,0.00,,,0.00,0,Wunderground v.1.15,2013-04-16 03:20:00,
2013-04-15 20:25:00,50.2,34.6,29.91,WNW,294,5.0,25.0,55,0.00,,,0.00,0,Wunderground v.1.15,2013-04-16 03:25:00,
2013-04-15 20:31:00,50.0,34.5,29.91,NNW,327,3.0,25.0,55,0.00,,,0.00,0,Wunderground v.1.15,2013-04-16 03:31:00,
2013-04-15 20:37:00,49.9,34.8,29.92,NNW,328,2.0,25.0,56,0.00,,,0.00,0,Wunderground v.1.15,2013-04-16 03:37:00,
2013-04-15 20:43:00,49.6,35.0,29.92,WNW,301,3.0,25.0,57,0.00,,,0.00,0,Wunderground v.1.15,2013-04-16 03:43:00,
2013-04-15 20:48:00,49.5,34.9,29.92,NNW,331,2.0,25.0,57,0.00,,,0.00,0,Wunderground v.1.15,2013-04-16 03:48:00,
2013-04-15 20:54:00,49.3,35.1,29.92,NNW,331,1.0,25.0,58,0.00,,,0.00,0,Wunderground v.1.15,2013-04-16 03:54:00,
2013-04-15 20:59:00,49.2,35.0,29.93,NNW,331,0.0,25.0,58,0.00,,,0.00,0,Wunderground v.1.15,2013-04-16 03:59:00,
2013-04-15 21:00:00,49.1,34.9,29.93,NNW,331,0.0,25.0,58,0.00,,,0.00,0,Wunderground v.1.15,2013-04-16 04:00:00,
2013-04-15 21:01:00,49.0,34.9,29.93,NNW,331,0.0,25.0,58,0.00,,,0.00,0,Wunderground v.1.15,2013-04-16 04:01:00,
2013-04-15 21:02:00,49.0,34.9,29.93,NNW,331,0.0,25.0,58,0.00,,,0.00,0,Wunderground v.1.15,2013-04-16 04:02:00,
2013-04-15 21:04:00,49.0,34.9,29.93,NNW,331,0.0,25.0,58,0.00,,,0.00,0,Wunderground v.1.15,2013-04-16 04:04:00,
2013-04-15 21:05:00,49.0,34.9,29.93,NNW,331,0.0,25.0,58,0.00,,,0.00,0,Wunderground v.1.15,2013-04-16 04:05:00,
2013-04-15 21:11:00,48.7,35.0,29.93,NW,323,1.0,25.0,59,0.00,,,0.00,0,Wunderground v.1.15,2013-04-16 04:11:00,
2013-04-15 21:17:00,48.5,34.8,29.94,WNW,296,1.0,25.0,59,0.00,,,0.00,0,Wunderground v.1.15,2013-04-16 04:17:00,
2013-04-15 21:23:00,48.2,35.0,29.94,WNW,296,0.0,25.0,60,0.00,,,0.00,0,Wunderground v.1.15,2013-04-16 04:23:00,
2013-04-15 21:29:00,48.0,34.8,29.94,WNW,296,0.0,25.0,60,0.00,,,0.00,0,Wunderground v.1.15,2013-04-16 04:29:00,
2013-04-15 21:35:00,47.9,35.1,29.95,WNW,296,0.0,25.0,61,0.00,,,0.00,0,Wunderground v.1.15,2013-04-16 04:35:00,
2013-04-15 21:40:00,47.7,34.9,29.95,WNW,296,0.0,25.0,61,0.00,,,0.00,0,Wunderground v.1.15,2013-04-16 04:40:00,
2013-04-15 21:45:00,47.6,34.8,29.95,WNW,296,0.0,25.0,61,0.00,,,0.00,0,Wunderground v.1.15,2013-04-16 04:45:00,
2013-04-15 21:51:00,47.4,34.6,29.96,WNW,296,0.0,25.0,61,0.00,,,0.00,0,Wunderground v.1.15,2013-04-16 04:51:00,
2013-04-15 21:56:00,47.2,34.8,29.96,WNW,296,0.0,25.0,62,0.00,,,0.00,0,Wunderground v.1.15,2013-04-16 04:56:00,
2013-04-15 22:01:00,47.1,34.7,29.96,WNW,296,0.0,25.0,62,0.00,,,0.00,0,Wunderground v.1.15,2013-04-16 05:01:00,
2013-04-15 22:06:00,46.9,34.6,29.96,WNW,296,0.0,25.0,62,0.00,,,0.00,0,Wunderground v.1.15,2013-04-16 05:06:00,
2013-04-15 22:11:00,46.8,34.5,29.96,WNW,296,0.0,25.0,62,0.00,,,0.00,0,Wunderground v.1.15,2013-04-16 05:11:00,
2013-04-15 22:17:00,46.6,34.3,29.96,WNW,296,0.0,25.0,62,0.00,,,0.00,0,Wunderground v.1.15,2013-04-16 05:17:00,
2013-04-15 22:23:00,46.4,34.5,29.97,WNW,296,1.0,25.0,63,0.00,,,0.00,0,Wunderground v.1.15,2013-04-16 05:23:00,
2013-04-15 22:28:00,46.3,34.4,29.97,WNW,296,1.0,25.0,63,0.00,,,0.00,0,Wunderground v.1.15,2013-04-16 05:28:00,
2013-04-15 22:34:00,46.1,34.2,29.97,WNW,296,0.0,25.0,63,0.00,,,0.00,0,Wunderground v.1.15,2013-04-16 05:34:00,
2013-04-15 22:39:00,46.0,34.5,29.97,WNW,296,0.0,25.0,64,0.00,,,0.00,0,Wunderground v.1.15,2013-04-16 05:39:00,
2013-04-15 22:44:00,45.8,34.3,29.97,West,279,0.0,25.0,64,0.00,,,0.00,0,Wunderground v.1.15,2013-04-16 05:44:00,
2013-04-15 22:50:00,45.6,34.1,29.97,West,270,0.0,25.0,64,0.00,,,0.00,0,Wunderground v.1.15,2013-04-16 05:50:00,
2013-04-15 22:55:00,45.5,34.4,29.98,WSW,246,1.0,25.0,65,0.00,,,0.00,0,Wunderground v.1.15,2013-04-16 05:55:00,
2013-04-15 23:01:00,45.4,34.3,29.98,WSW,246,1.0,25.0,65,0.00,,,0.00,0,Wunderground v.1.15,2013-04-16 06:01:00,
2013-04-15 23:06:00,45.2,34.1,29.98,WSW,246,1.0,25.0,65,0.00,,,0.00,0,Wunderground v.1.15,2013-04-16 06:06:00,
2013-04-15 23:11:00,45.1,34.0,29.97,WSW,246,0.0,25.0,65,0.00,,,0.00,0,Wunderground v.1.15,2013-04-16 06:11:00,
2013-04-15 23:16:00,45.0,33.9,29.97,WSW,246,0.0,25.0,65,0.00,,,0.00,0,Wunderground v.1.15,2013-04-16 06:16:00,
2013-04-15 23:22:00,44.9,33.8,29.98,WSW,246,0.0,25.0,65,0.00,,,0.00,0,Wunderground v.1.15,2013-04-16 06:22:00,
2013-04-15 23:28:00,44.7,34.0,29.98,WSW,246,0.0,25.0,66,0.00,,,0.00,0,Wunderground v.1.15,2013-04-16 06:28:00,
2013-04-15 23:34:00,44.6,33.9,29.98,WSW,246,0.0,25.0,66,0.00,,,0.00,0,Wunderground v.1.15,2013-04-16 06:34:00,
2013-04-15 23:40:00,44.4,33.7,29.98,WSW,238,1.0,25.0,66,0.00,,,0.00,0,Wunderground v.1.15,2013-04-16 06:40:00,
2013-04-15 23:46:00,44.2,33.9,29.98,SW,219,1.0,25.0,67,0.00,,,0.00,0,Wunderground v.1.15,2013-04-16 06:46:00,
2013-04-15 23:52:00,44.1,33.8,29.98,WSW,243,2.0,25.0,67,0.00,,,0.00,0,Wunderground v.1.15,2013-04-16 06:52:00,
2013-04-15 23:58:00,44.0,33.7,29.99,WSW,240,1.0,25.0,67,0.00,,,0.00,0,Wunderground v.1.15,2013-04-16 06:58:00,